Weather History for Westerly, RI

Change the Weather History Date:

Wednesday, September 18, 2013

  Actual Average (KGON) Record (KGON)
Temperature  
Mean Temperature 52 °F -  
Max Temperature 68 °F 72 °F 81 °F (1965)
Min Temperature 37 °F 53 °F 36 °F (1959)
Degree Days  
Heating Degree Days 14    
Growing Degree Days 2 (Base 50)    
Moisture  
Dew Point 43 °F    
Average Humidity 71    
Maximum Humidity 97    
Minimum Humidity 40    
Precipitation  
Precipitation 0.00 in - - ()
Sea Level Pressure  
Sea Level Pressure 30.27 in    
Wind  
Wind Speed 2 mph (SW)    
Max Wind Speed 10 mph    
Max Gust Speed -    
Visibility 10 miles    
Events      
Averages and records for this station are not official NWS values.
T = Trace of Precipitation, MM = Missing Value Source: NWS Daily Summary

Daily Weather History Graph

Daily Weather History Graph

Search for Another Location

Airport:

Trip Planner

Search our weather history database for the weather conditions in past years. The results will help you decide how hot, cold, wet, or windy it might be!

Date:

Astronomy

Sep. 18, 2013 Rise Set
Actual Time 6:30 AM EDT 6:50 PM EDT
Civil Twilight 6:03 AM EDT 7:18 PM EDT
Nautical Twilight 5:30 AM EDT 7:51 PM EDT
Astronomical Twilight 4:57 AM EDT 8:24 PM EDT
Moon 6:12 PM EDT (9/18) 5:29 AM EDT (9/18)
Length of Visible Light 13h 15m
Length of Day
12h 20m
Waxing Gibbous, 99% of the Moon is Illuminated
Sep 18
Waxing Gibbous
Sep 19
Full
Sep 26
Last Quarter
Oct 4
New
Oct 11
First Quarter

Hourly Weather History & Observations

Time (EDT) Temp. Dew Point Humidity Pressure Visibility Wind Dir Wind Speed Gust Speed Precip Events Conditions
12:53 AM 41.0 °F 39.9 °F 96% 30.35 in 10.0 mi Calm Calm - N/A   Clear
1:53 AM 39.9 °F 39.0 °F 97% 30.35 in 10.0 mi Calm Calm - N/A   Clear
2:53 AM 39.9 °F 39.0 °F 97% 30.33 in 10.0 mi Calm Calm - N/A   Clear
3:53 AM 39.0 °F 37.9 °F 96% 30.32 in 10.0 mi Calm Calm - N/A   Clear
4:53 AM 37.9 °F 37.0 °F 97% 30.32 in 10.0 mi Calm Calm - N/A   Clear
5:53 AM 37.9 °F 37.0 °F 97% 30.33 in 10.0 mi Calm Calm - N/A   Clear
6:53 AM 39.0 °F 37.0 °F 93% 30.34 in 10.0 mi Calm Calm - N/A   Clear
7:53 AM 46.0 °F 43.0 °F 89% 30.33 in 10.0 mi Calm Calm - N/A   Clear
8:53 AM 57.0 °F 46.0 °F 67% 30.33 in 10.0 mi Calm Calm - N/A   Clear
9:53 AM 62.1 °F 44.1 °F 52% 30.32 in 10.0 mi West 5.8 mph - N/A   Clear
10:53 AM 64.9 °F 41.0 °F 42% 30.31 in 10.0 mi Variable 4.6 mph - N/A   Clear
11:53 AM 64.9 °F 41.0 °F 42% 30.30 in 10.0 mi SSW 5.8 mph - N/A   Clear
12:53 PM 66.0 °F 41.0 °F 40% 30.27 in 10.0 mi SW 8.1 mph - N/A   Clear
1:53 PM 66.0 °F 42.1 °F 42% 30.26 in 10.0 mi WSW 10.4 mph - N/A   Clear
2:53 PM 66.0 °F 42.1 °F 42% 30.24 in 10.0 mi WSW 9.2 mph - N/A   Clear
3:53 PM 66.0 °F 44.1 °F 45% 30.22 in 10.0 mi SW 9.2 mph - N/A   Clear
4:53 PM 66.0 °F 43.0 °F 43% 30.22 in 10.0 mi SW 9.2 mph - N/A   Clear
5:53 PM 66.0 °F 42.1 °F 42% 30.20 in 10.0 mi WSW 5.8 mph - N/A   Clear
6:53 PM 63.0 °F 46.9 °F 56% 30.19 in 10.0 mi SW 3.5 mph - N/A   Clear
7:53 PM 57.0 °F 50.0 °F 77% 30.19 in 10.0 mi Calm Calm - N/A   Clear
8:53 PM 55.0 °F 51.1 °F 86% 30.20 in 10.0 mi Calm Calm - N/A   Clear
9:53 PM 57.0 °F 53.1 °F 87% 30.20 in 10.0 mi Calm Calm - N/A   Clear
10:53 PM 50.0 °F 48.0 °F 93% 30.19 in 10.0 mi Calm Calm - N/A   Clear
11:53 PM 52.0 °F 50.0 °F 93% 30.18 in 10.0 mi Calm Calm - N/A   Clear